OpenBCM V1.13 (Linux)

Packet Radio Mailbox

DB0FHN

[JN59NK Nuernberg]

 Login: GUEST





  
LU9DCE > KEP      08.08.19 20:34l 247 Lines 12263 Bytes #-2457 (0) @ WW
BID : 29642_LU9DCE
Read: DF7EAV DJ6UX GUEST
Subj: TLE 08 08
Path: DB0FHN<DB0BLO<DB0ERF<IZ3LSV<I3XTY<I0OJJ<LU9DCE
Sent: 190808/1801Z 29642@LU9DCE.TOR.BA.ARG.SOAM LinBPQ6.0.17

>From lu9dce%lu9dce.tor.ba.arg.soam@i0ojj.ampr.org Thu Aug  8 20:02:27 2019
Received: from i0ojj.ampr.org by i0ojj.ampr.org (JNOS2.0k.3b) with SMTP
	id AA24421 ; Thu, 08 Aug 2019 20:02:27 +0200
Message-Id: <29642_lu9dce@lu9dce.bbs>
>From: lu9dce@lu9dce.tor.ba.arg.soam
X-JNOS-User-Port: Circuit  (X-YORK:VE3CGR-8 LU9DCE)  -> Sending message

            __    _  _  ___  ____   ___  ____    ____  ____  ____
           (  )  / )( \/ _ \(    \ / __)(  __)  (  _ \(  _ \/ ___)
           / (_/\) \/ (\__  )) D (( (__  ) _)    ) _ ( ) _ (\___ \
           \____/\____/(___/(____/ \___)(____)  (____/(____/(____/
               ESTACION DE PACKET RADIO - BUENOS AIRES (GF05OM)
                   BOLETINES INFORMATIVOS PROGRAMADOS (BIP)
                  SLACKWARE LINUX - HELLOCODELINUX@GMAIL.COM
                          https://slacko.home.blog
+----------------------------------------------------------------------------+
OSCAR 7
1  7530U 74089B   19219.36617392 -.00000022 +00000-0 +14683-3 0  9992
2  7530 101.7476 186.5256 0011712 251.3553 277.7842 12.53639196046509
OSCAR 11 (UoSAT 2)
1 14781U 84021B   19220.09883211  .00000038  00000-0  10716-4 0  9992
2 14781  97.6087 242.4272 0009310 145.7751 214.4065 14.83099040906236
OSCAR 19 (LUSAT)
1 20442U 90005G   19220.29373433 -.00000007  00000-0  13590-4 0  9994
2 20442  98.6504 162.2155 0011922   6.1826 353.9502 14.32930032543620
EYESAT A
1 22825U 93061C   19220.36562904 -.00000008  00000-0  14869-4 0  9998
2 22825  98.9060 210.1657 0007855 204.7094 155.3712 14.30063741349195
ITAMSAT
1 22826U 93061D   19219.51609137 -.00000014  00000-0  12622-4 0  9996
2 22826  98.8999 209.2818 0008521 195.9391 164.1524 14.30397431349270
RADIO ROSTO
1 23439U 94085A   19219.89226950 -.00000034 +00000-0 +23504-3 0  9995
2 23439 064.8181 034.9422 0146110 103.4697 258.2555 11.27568716013558
JAS 2
1 24278U 96046B   19220.35063233 -.00000038  00000-0 -61000-5 0  9992
2 24278  98.5444   6.9004 0351338 108.6262 255.3365 13.53092991134656
TECHSAT 1B
1 25397U 98043D   19220.29201476 -.00000021  00000-0  10022-4 0  9998
2 25397  98.6902 159.8286 0000362 190.7945 169.3226 14.23668608 95071
ISS (ZARYA)
1 25544U 98067A   19220.49639721  .00002104  00000-0  43332-4 0  9991
2 25544  51.6444 101.7413 0005892 231.9577 188.5594 15.51044317183374
PCSAT
1 26931U 01043C   19219.48932366 -.00000046  00000-0  14328-4 0  9995
2 26931  67.0492 235.1782 0007410 275.1281  84.8974 14.30548705932097
SAUDISAT 1C
1 27607U 02058C   19219.56431725 -.00000058  00000-0  12839-4 0  9993
2 27607  64.5537 257.1176 0079472 246.9732 112.2976 14.75563039894399
CUTE-1
1 27844U 03031E   19219.95613127 +.00000032 +00000-0 +33950-4 0  9997
2 27844 098.6840 227.4178 0008704 242.6504 117.3788 14.22188405835393
CUBESAT XI 4
1 27848U 03031J   19219.96258756 +.00000016 +00000-0 +27191-4 0  9997
2 27848 098.6917 227.9350 0008526 255.7244 104.2987 14.21782388835257
MOZHAYETS 4
1 27939U 03042A   19220.39218644  .00000111  00000-0  28585-4 0  9995
2 27939  98.0485 355.2383 0011753 267.0582  92.9283 14.66794370847977
CUBESAT XI 5
1 28895U 05043F   19219.82292862  .00000084  00000-0  24997-4 0  9992
2 28895  97.9659   0.8545 0016647 188.7411 171.3504 14.63680092734818
CUTE-1.7+APD II
1 32785U 08021C   19219.84023578  .00000148  00000-0  21542-4 0  9996
2 32785  97.5509 217.1928 0014719  96.0232 264.2663 14.88327993611142
DELFI C3
1 32789U 08021G   19220.21418579  .00001249  00000-0  87343-4 0  9996
2 32789  97.4609 268.3468 0010901 318.1262  41.9131 15.07036312614577
SEEDS
1 32791U 08021J   19219.97558481  .00000218  00000-0  27430-4 0  9993
2 32791  97.5285 223.3454 0014925  72.6692 287.6158 14.90845771611603
YUBELEINY
1 32953U 08025A   19220.34944026  .00000020  00000-0  75656-4 0  9998
2 32953  82.5022 113.2676 0020203  20.3516 339.8366 12.43090748508608
PRISM (HITOMI)
1 33493U 09002B   19220.27231678  .00000932  00000-0  87026-4 0  9994
2 33493  98.1208 143.1453 0015784  21.9159 338.2733 14.96694573572710
KKS-1 (KISEKI)
1 33499U 09002H   19219.92694139 +.00000058 +00000-0 +16629-4 0  9995
2 33499 098.3479 060.2294 0010223 051.8191 308.3937 14.75453018566206
SWISSCUBE
1 35932U 09051B   19220.44064016  .00000082  00000-0  29697-4 0  9993
2 35932  98.5929  27.9113 0007892  19.2812 340.8682 14.56298000524162
BEESAT
1 35933U 09051C   19220.44053780  .00000066  00000-0  25910-4 0  9996
2 35933  98.5952  29.6921 0006385  33.9285 326.2319 14.56385531524271
ITUPSAT 1
1 35935U 09051E   19219.90881214 +.00000068 +00000-0 +26882-4 0  9999
2 35935 098.6062 029.3786 0008666 030.2254 329.9441 14.55543696523915
XIWANG-1 (HOPE-1)
1 36122U 09072B   19219.74679707 -.00000028  00000-0  36039-4 0  9997
2 36122 100.0738 219.7756 0006800 231.4153 128.6335 13.16350545463469
TISAT 1
1 36799U 10035E   19219.87667714 +.00000103 +00000-0 +16513-4 0  9995
2 36799 098.1619 013.7106 0010873 282.6550 077.3451 14.91129252492047
JUGNU
1 37839U 11058B   19219.82999883  .00000295  00000-0  15617-4 0  9993
2 37839  19.9627  30.7320 0018835 159.6839 334.5229 14.12655069404350
SRMSAT
1 37841U 11058D   19219.94844774  .00000292  00000-0  15153-4 0  9999
2 37841  19.9729  87.8266 0011846  29.0262  91.6500 14.10635967403796
M-CUBED/EXP-1 PRIME
1 37855U 11061F   19220.24241087  .00000759  00000-0  46101-4 0  9996
2 37855 101.7103 141.7862 0173119 287.0062  71.2244 15.05522566424387
HORYU 2
1 38340U 12025D   19219.54696323 +.00000094 +00000-0 +21729-4 0  9996
2 38340 098.3258 259.6247 0010709 331.3695 028.6924 14.75734687378109
STRAND 1
1 39090U 13009E   19220.40443691  .00000003  00000-0  16159-4 0  9998
2 39090  98.4847  65.5017 0009974 132.8945 227.3079 14.35092062337665
SOMP
1 39134U 13015E   19220.14650615  .00000815  00000-0  46419-4 0  9994
2 39134  64.8613 216.9644 0033956 295.6830  64.0792 15.20232718348263
BEESAT 3
1 39135U 13015F   19220.15825126  .00000556  00000-0  37317-4 0  9996
2 39135  64.8678 235.9377 0028211 310.4018  49.4646 15.17530624347909
BEESAT 2
1 39136U 13015G   19220.08247161  .00000337  00000-0  26982-4 0  9999
2 39136  64.8675 240.1517 0021675 301.5222  58.3786 15.16951329347818
CUBEBUG 1
1 39153U 13018D   19220.31489683  .00000098  00000-0  19665-4 0  9998
2 39153  97.9801 318.1597 0017744  38.6938 321.5541 14.80580735339301
ZACUBE
1 39417U 13066B   19220.10306045  .00000126  00000-0  22338-4 0  9994
2 39417  97.5620 230.7717 0057745 227.6961 131.9351 14.81132130308506
TRITON 1
1 39427U 13066M   19219.89985964 +.00000210 +00000-0 +41510-4 0  9999
2 39427 097.6800 194.1849 0114047 005.5312 354.7123 14.67860583305513
GOMX 1
1 39430U 13066Q   19220.36418031  .00000129  00000-0  31854-4 0  9992
2 39430  97.7506 173.5896 0152539  94.3701 267.4952 14.59267358303992
HUMSAT D
1 39433U 13066T   19220.37567038  .00000082  00000-0  13255-4 0  9991
2 39433  97.5500 265.8011 0032100 129.8578 230.5473 14.92220846310634
CUBEBUG 2
1 39440U 13066AA  19219.44716844 +.00000132 +00000-0 +25617-4 0  9997
2 39440 097.6038 214.9508 0078689 283.6745 075.5713 14.75870147307313
FUNCUBE 1
1 39444U 13066AE  19220.00824986  .00000172  00000-0  27604-4 0  9994
2 39444  97.5600 232.6767 0056975 221.5160 138.1720 14.81954229307383
UWE-3
1 39446U 13066AG  19220.24598997  .00000126  00000-0  23590-4 0  9991
2 39446  97.5820 222.7807 0068463 254.8144 104.5490 14.78404947306732
SPROUT
1 39770U 14029E   19220.35648340  .00000460  00000-0  57021-4 0  9998
2 39770  97.8871 323.3267 0007688 281.2093  78.8236 14.87380781282360
UNISAT 6
1 40012U 14033C   19219.57073073 +.00000109 +00000-0 +23768-4 0  9992
2 40012 097.7515 084.0179 0057051 297.7856 061.7576 14.73992165276031
DUCHIFAT 1
1 40021U 14033M   19219.75464893  .00000278  00000-0  34259-4 0  9990
2 40021  97.9227 144.5141 0011498 242.9917 117.0127 14.90654370279008
QB50P1
1 40025U 14033R   19219.76612049 +.00000148 +00000-0 +21702-4 0  9998
2 40025 097.9041 139.3683 0010969 253.4781 106.5231 14.88962255278264
CHUBUSAT 1
1 40300U 14070C   19220.27178628  .00000438  00000-0  22053-4 0  9995
2 40300  97.3241 293.1700 0018706 237.8030 163.1961 15.22124272263716
NUDT-PHONESAT
1 40900U 15049B   19220.24673906  .00001509  00000-0  67266-4 0  9999
2 40900  97.4367 229.0863 0013504  14.2773 118.8417 15.22906609215354
ZDPS 2A
1 40901U 15049C   19220.45127458  .00000533  00000-0  29675-4 0  9997
2 40901  97.4606 225.5417 0014397  32.1819 108.5939 15.17773700214934
ZDPS 2B
1 40902U 15049D   19220.41086726  .00000998  00000-0  52866-4 0  9999
2 40902  97.4548 222.9626 0014563  29.3417  80.3866 15.17608274214906
XW-2A
1 40903U 15049E   19220.40522604  .00001611  00000-0  39783-4 0  9995
2 40903  97.3340 263.4484 0012611 327.9615 160.4381 15.41970761218060
KAITUO 1A
1 40904U 15049F   19220.45771103  .00000243  00000-0  16322-4 0  9995
2 40904  97.4679 221.5981 0015611  37.0668 119.1410 15.15389445214686
OBJECT G
1 40905U 15049G   19220.44228878  .00000016  00000-0  44550-5 0  9994
2 40905  97.4719 219.0835 0016471  32.0735 126.5780 15.14312861214552
XW-2C
1 40906U 15049H   19220.44871575  .00000247  00000-0  16447-4 0  9992
2 40906  97.4689 221.6875 0015598  28.6664 130.1774 15.15707896214688
XW-2D
1 40907U 15049J   19220.41031608  .00000608  00000-0  35147-4 0  9994
2 40907  97.4667 221.3275 0014974  26.4950  79.4540 15.15900805214699
LILACSAT 2
1 40908U 15049K   19220.43285068  .00000021  00000-0  47965-5 0  9999
2 40908  97.4802 220.1408 0016938  31.7042 102.2730 15.13820468214486
XW-2F
1 40910U 15049M   19220.26123251  .00000800  00000-0  43376-4 0  9994
2 40910  97.4629 223.2443 0015618  19.4075 102.6342 15.17351540214681
XW-2B
1 40911U 15049N   19220.25168760  .00000365  00000-0  22548-4 0  9992
2 40911  97.4687 221.8295 0014877  27.7480 102.2440 15.15828905214567
